| time (UTC) | temp F | wind direction | speed MPH | gust MPH | rain 1hr in | rain 24hr in | rain mn in | humidity % | barometer mb |
| 20260903193012 | 73 | 351 | 0.0 | 0.0 | 0.00 | 0.30 | 0.30 | 87 | 1010.9 |
| 20260903191514 | 72 | 351 | 0.0 | 0.0 | 0.00 | 0.30 | 0.30 | 90 | 1011.1 |
| 20260903190004 | 72 | 300 | 0.0 | 0.0 | 0.00 | 0.30 | 0.30 | 91 | 1011.5 |
| 20260903184607 | 71 | 247 | 0.0 | 1.0 | 0.00 | 0.30 | 0.30 | 92 | 1011.5 |
| 20260903183059 | 70 | 231 | 0.0 | 0.0 | 0.00 | 0.30 | 0.30 | 93 | 1011.5 |
| 20260903181557 | 70 | 231 | 0.0 | 0.0 | 0.00 | 0.30 | 0.30 | 93 | 1011.9 |
| 20260903180106 | 70 | 231 | 0.0 | 0.0 | 0.00 | 0.30 | 0.30 | 93 | 1012.1 |
| 20260903174610 | 70 | 231 | 0.0 | 0.0 | 0.00 | 0.30 | 0.30 | 94 | 1012.3 |
| 20260903173056 | 69 | 231 | 0.0 | 0.0 | 0.00 | 0.30 | 0.30 | 94 | 1012.0 |
| 20260903171551 | 69 | 133 | 0.0 | 1.0 | 0.00 | 0.30 | 0.30 | 96 | 1011.8 |
| 20260903170106 | 68 | 149 | 0.0 | 0.0 | 0.00 | 0.30 | 0.30 | 96 | 1012.0 |
| 20260903164553 | 68 | 96 | 0.0 | 0.0 | 0.00 | 0.30 | 0.30 | 96 | 1012.0 |
| 20260903163047 | 68 | 335 | 0.0 | 1.0 | 0.00 | 0.30 | 0.30 | 97 | 1012.0 |
| 20260903161544 | 67 | 157 | 0.0 | 0.0 | 0.00 | 0.30 | 0.30 | 97 | 1012.0 |
| 20260903160042 | 67 | 157 | 0.0 | 0.0 | 0.00 | 0.30 | 0.30 | 97 | 1012.2 |
| 20260903154540 | 67 | 158 | 0.0 | 0.0 | 0.00 | 0.30 | 0.30 | 97 | 1012.5 |
| 20260903153044 | 66 | 230 | 0.0 | 1.0 | 0.00 | 0.30 | 0.30 | 98 | 1012.6 |
| 20260903151547 | 66 | 230 | 0.0 | 0.0 | 0.00 | 0.30 | 0.30 | 98 | 1012.7 |
| 20260903150037 | 66 | 230 | 0.0 | 0.0 | 0.00 | 0.30 | 0.30 | 98 | 1012.7 |
| 20260903144535 | 65 | 230 | 0.0 | 0.0 | 0.00 | 0.30 | 0.30 | 98 | 1012.9 |
| 20260903143032 | 65 | 230 | 0.0 | 0.0 | 0.00 | 0.30 | 0.30 | 98 | 1012.9 |
| 20260903141529 | 65 | 230 | 0.0 | 0.0 | 0.00 | 0.30 | 0.30 | 98 | 1013.3 |
| 20260903140028 | 64 | 230 | 0.0 | 0.0 | 0.00 | 0.30 | 0.30 | 98 | 1013.4 |
| 20260903134528 | 64 | 230 | 0.0 | 0.0 | 0.00 | 0.30 | 0.30 | 98 | 1013.4 |
| 20260903133025 | 64 | 230 | 0.0 | 0.0 | 0.00 | 0.30 | 0.30 | 98 | 1013.2 |
| 20260903131524 | 64 | 230 | 0.0 | 0.0 | 0.01 | 0.30 | 0.30 | 98 | 1013.3 |
| 20260903130022 | 63 | 230 | 0.0 | 0.0 | 0.01 | 0.30 | 0.30 | 98 | 1013.3 |
| 20260903124519 | 63 | 230 | 0.0 | 0.0 | 0.01 | 0.30 | 0.30 | 98 | 1013.6 |
| 20260903123018 | 63 | 230 | 0.0 | 0.0 | 0.02 | 0.30 | 0.30 | 98 | 1013.7 |
| 20260903121514 | 63 | 254 | 0.0 | 0.0 | 0.01 | 0.28 | 0.28 | 98 | 1014.0 |
| 20260903120021 | 62 | 253 | 0.0 | 0.0 | 0.02 | 0.28 | 0.28 | 98 | 1014.2 |
| 20260903114513 | 62 | 254 | 0.0 | 0.0 | 0.03 | 0.28 | 0.28 | 98 | 1014.4 |
| 20260903113012 | 62 | 254 | 0.0 | 0.0 | 0.03 | 0.28 | 0.28 | 98 | 1014.3 |
| 20260903111511 | 62 | 254 | 0.0 | 0.0 | 0.08 | 0.28 | 0.28 | 98 | 1014.3 |
| 20260903110010 | 62 | 254 | 0.0 | 0.0 | 0.09 | 0.27 | 0.27 | 97 | 1014.4 |
| 20260903104514 | 62 | 254 | 0.0 | 0.0 | 0.11 | 0.26 | 0.26 | 97 | 1014.3 |
| 20260903103010 | 62 | 254 | 0.0 | 0.0 | 0.14 | 0.25 | 0.25 | 97 | 1014.2 |
| 20260903101509 | 62 | 254 | 0.0 | 0.0 | 0.09 | 0.20 | 0.20 | 97 | 1014.4 |
| 20260903100007 | 62 | 254 | 0.0 | 0.0 | 0.08 | 0.18 | 0.18 | 97 | 1014.2 |
| 20260903094508 | 62 | 254 | 0.0 | 0.0 | 0.06 | 0.15 | 0.15 | 97 | 1014.4 |
| 20260903093010 | 62 | 254 | 0.0 | 1.0 | 0.11 | 0.11 | 0.11 | 97 | 1014.6 |
| 20260903091508 | 62 | 103 | 0.0 | 0.0 | 0.11 | 0.11 | 0.11 | 96 | 1014.5 |
| 20260903090004 | 62 | 271 | 0.0 | 1.0 | 0.10 | 0.10 | 0.10 | 96 | 1014.7 |
| 20260903084504 | 63 | 110 | 0.0 | 1.0 | 0.09 | 0.09 | 0.09 | 96 | 1014.5 |
| 20260903083004 | 63 | 118 | 0.0 | 0.0 | 0.00 | 0.00 | 0.00 | 96 | 1014.4 |
| 20260903081502 | 63 | 167 | 0.0 | 0.0 | 0.00 | 0.00 | 0.00 | 97 | 1014.4 |
| 20260903080059 | 62 | 167 | 0.0 | 0.0 | 0.00 | 0.00 | 0.00 | 97 | 1014.8 |
| 20260903074603 | 62 | 167 | 0.0 | 0.0 | 0.00 | 0.00 | 0.00 | 97 | 1015.1 |
| 20260903073105 | 62 | 167 | 0.0 | 0.0 | 0.00 | 0.00 | 0.00 | 97 | 1014.9 |
| 20260903071600 | 62 | 167 | 0.0 | 0.0 | 0.00 | 0.00 | 0.00 | 97 | 1015.1 |
| 20260903070052 | 62 | 167 | 0.0 | 0.0 | 0.00 | 0.00 | 0.00 | 97 | 1015.4 |
| 20260903064549 | 62 | 167 | 0.0 | 0.0 | 0.00 | 0.00 | 0.00 | 97 | 1016.0 |
| 20260903063051 | 62 | 167 | 0.0 | 0.0 | 0.00 | 0.00 | 0.00 | 97 | 1016.2 |
| 20260903061558 | 62 | 167 | 0.0 | 0.0 | 0.00 | 0.00 | 0.00 | 97 | 1016.8 |
| 20260903060043 | 62 | 167 | 0.0 | 0.0 | 0.00 | 0.00 | 0.00 | 97 | 1017.2 |
| 20260903054542 | 62 | 167 | 0.0 | 0.0 | 0.00 | 0.00 | 0.00 | 97 | 1017.2 |
| 20260903053058 | 62 | 139 | 0.0 | 0.0 | 0.00 | 0.00 | 0.00 | 97 | 1017.0 |
| 20260903051541 | 62 | 140 | 0.0 | 0.0 | 0.00 | 0.00 | 0.00 | 97 | 1017.3 |
| 20260903050039 | 62 | 139 | 0.0 | 0.0 | 0.00 | 0.00 | 0.00 | 97 | 1017.2 |
| 20260903044537 | 62 | 140 | 0.0 | 0.0 | 0.00 | 0.00 | 0.00 | 97 | 1017.5 |
| 20260903043041 | 62 | 139 | 0.0 | 0.0 | 0.00 | 0.00 | 0.00 | 97 | 1017.5 |
| 20260903041637 | 62 | 139 | 0.0 | 0.0 | 0.00 | 0.00 | 0.00 | 97 | 1017.6 |
| 20260903040033 | 62 | 139 | 0.0 | 0.0 | 0.00 | 0.00 | 0.00 | 97 | 1017.6 |
| 20260903034531 | 62 | 139 | 0.0 | 0.0 | 0.00 | 0.00 | 0.00 | 97 | 1017.8 |
| 20260903033029 | 62 | 139 | 0.0 | 0.0 | 0.00 | 0.00 | 0.00 | 97 | 1018.2 |
| 20260903031530 | 62 | 139 | 0.0 | 0.0 | 0.00 | 0.00 | 0.00 | 97 | 1018.1 |
| 20260903030050 | 62 | 140 | 0.0 | 0.0 | 0.00 | 0.00 | 0.00 | 97 | 1018.3 |
| 20260903024526 | 62 | 140 | 0.0 | 0.0 | 0.00 | 0.00 | 0.00 | 97 | 1018.3 |
| 20260903023026 | 62 | 139 | 0.0 | 0.0 | 0.00 | 0.00 | 0.00 | 96 | 1018.2 |
| 20260903021525 | 62 | 139 | 0.0 | 0.0 | 0.00 | 0.00 | 0.00 | 96 | 1018.4 |
| 20260903020024 | 62 | 139 | 0.0 | 0.0 | 0.00 | 0.00 | 0.00 | 96 | 1018.6 |
| 20260903014527 | 62 | 140 | 0.0 | 0.0 | 0.00 | 0.00 | 0.00 | 96 | 1018.7 |
| 20260903013037 | 62 | 139 | 0.0 | 0.0 | 0.00 | 0.00 | 0.00 | 96 | 1018.2 |
| 20260903011523 | 62 | 139 | 0.0 | 0.0 | 0.00 | 0.00 | 0.00 | 96 | 1018.4 |
| 20260903010032 | 62 | 139 | 0.0 | 0.0 | 0.00 | 0.00 | 0.00 | 95 | 1018.3 |
| 20260903004522 | 63 | 140 | 0.0 | 0.0 | 0.00 | 0.00 | 0.00 | 95 | 1018.5 |
| 20260903003023 | 63 | 140 | 0.0 | 0.0 | 0.00 | 0.00 | 0.00 | 95 | 1018.6 |
| 20260903001521 | 63 | 139 | 0.0 | 0.0 | 0.00 | 0.00 | 0.00 | 95 | 1018.9 |
| 20260903000020 | 63 | 139 | 0.0 | 0.0 | 0.00 | 0.00 | 0.00 | 94 | 1018.9 |
| 20260902234524 | 63 | 140 | 0.0 | 0.0 | 0.00 | 0.00 | 0.00 | 94 | 1019.0 |
| 20260902233019 | 64 | 139 | 0.0 | 0.0 | 0.00 | 0.00 | 0.00 | 93 | 1019.3 |
| 20260902231525 | 64 | 139 | 0.0 | 0.0 | 0.00 | 0.00 | 0.00 | 92 | 1019.4 |
| 20260902230017 | 65 | 139 | 0.0 | 0.0 | 0.00 | 0.00 | 0.00 | 91 | 1019.6 |
| 20260902224530 | 66 | 139 | 0.0 | 0.0 | 0.00 | 0.00 | 0.00 | 90 | 1019.4 |
| 20260902223017 | 67 | 129 | 0.0 | 0.0 | 0.00 | 0.00 | 0.00 | 90 | 1019.6 |
| 20260902221521 | 67 | 337 | 0.0 | 0.0 | 0.00 | 0.00 | 0.00 | 89 | 1019.8 |
| 20260902220038 | 68 | 335 | 0.0 | 0.0 | 0.00 | 0.00 | 0.00 | 87 | 1019.8 |
| 20260902214515 | 70 | 94 | 0.0 | 2.0 | 0.00 | 0.00 | 0.00 | 84 | 1019.7 |
| 20260902213014 | 70 | 131 | 0.0 | 0.0 | 0.00 | 0.00 | 0.00 | 84 | 1019.7 |
| 20260902211513 | 72 | 115 | 0.0 | 2.0 | 0.00 | 0.00 | 0.00 | 83 | 1019.5 |
| 20260902210019 | 71 | 121 | 0.0 | 1.0 | 0.00 | 0.00 | 0.00 | 84 | 1019.7 |
| 20260902204514 | 71 | 100 | 0.0 | 2.0 | 0.00 | 0.00 | 0.00 | 83 | 1019.8 |
| 20260902203010 | 70 | 125 | 0.0 | 1.0 | 0.00 | 0.00 | 0.00 | 86 | 1020.0 |
| 20260902201528 | 69 | 155 | 0.0 | 1.0 | 0.00 | 0.00 | 0.00 | 86 | 1020.3 |
| 20260902200009 | 70 | 117 | 0.0 | 0.0 | 0.00 | 0.00 | 0.00 | 86 | 1020.3 |
| 20260902194523 | 70 | 118 | 0.0 | 0.0 | 0.00 | 0.00 | 0.00 | 85 | 1020.5 |